DOC95 ENLX-ZZZZ

Flight info

Callsign DOC95
Flight time N/A
Altitude 3000
Route VINCINITY
Aircraft EC45/L-V/C

Departure

Time 2026-04-18 13:14
Airport Lørenskog Heliport, Ahus (ENLX)

Arrival

Time N/A
Airport ZZZZ
Time Latitude Longitude Altitude Speed Heading
2026-04-18 13:00 59.93214 10.98689 560 ft 0 kts 360°
2026-04-18 13:06 59.93201 10.98685 574 ft 4 kts
2026-04-18 13:06 59.93199 10.98690 571 ft 1 kts 70°
2026-04-18 13:06 59.93200 10.98696 571 ft 0 kts 67°
2026-04-18 13:12 59.93198 10.98689 562 ft 0 kts 58°
2026-04-18 13:12 59.93188 10.98674 586 ft 4 kts 46°
2026-04-18 13:12 59.93159 10.98662 662 ft 6 kts 25°
2026-04-18 13:13 59.93168 10.98661 777 ft 25 kts 294°
2026-04-18 13:13 59.92992 10.98173 771 ft 75 kts 222°
2026-04-18 13:13 59.92591 10.97247 820 ft 98 kts 236°
2026-04-18 13:13 59.92247 10.96038 964 ft 104 kts 248°
2026-04-18 13:14 59.92064 10.94609 1098 ft 109 kts 256°
2026-04-18 13:14 59.91954 10.93155 1240 ft 102 kts 267°
2026-04-18 13:14 59.91912 10.91777 1405 ft 97 kts 274°
2026-04-18 13:14 59.91920 10.90495 1385 ft 103 kts 274°
2026-04-18 13:15 59.91747 10.89133 1372 ft 99 kts 252°
2026-04-18 13:15 59.91500 10.87846 1424 ft 101 kts 245°
2026-04-18 13:15 59.91231 10.86550 1519 ft 102 kts 245°
2026-04-18 13:15 59.90965 10.85264 1555 ft 99 kts 245°
2026-04-18 13:16 59.90707 10.83990 1569 ft 99 kts 245°
2026-04-18 13:16 59.90459 10.82747 1573 ft 98 kts 246°
2026-04-18 13:16 59.90210 10.81471 1578 ft 98 kts 246°
2026-04-18 13:16 59.89966 10.80197 1567 ft 97 kts 246°
2026-04-18 13:17 59.89724 10.78929 1516 ft 98 kts 247°
2026-04-18 13:17 59.89488 10.77662 1494 ft 98 kts 248°
2026-04-18 13:17 59.89252 10.76375 1493 ft 98 kts 246°
2026-04-18 13:17 59.89021 10.75104 1484 ft 97 kts 244°
2026-04-18 13:18 59.88797 10.73856 1479 ft 96 kts 247°
2026-04-18 13:18 59.88569 10.72578 1482 ft 98 kts 245°
2026-04-18 13:18 59.88345 10.71330 1480 ft 94 kts 246°
2026-04-18 13:18 59.88118 10.70062 1482 ft 99 kts 246°
2026-04-18 13:19 59.87890 10.68793 1479 ft 97 kts 247°
2026-04-18 13:19 59.87664 10.67521 1482 ft 97 kts 246°
2026-04-18 13:19 59.87440 10.66269 1478 ft 97 kts 246°
2026-04-18 13:19 59.87212 10.64999 1480 ft 98 kts 248°
2026-04-18 13:20 59.86914 10.63828 1486 ft 90 kts 220°
2026-04-18 13:20 59.86329 10.63407 1480 ft 97 kts 183°
2026-04-18 13:20 59.85656 10.63319 1483 ft 97 kts 198°
2026-04-18 13:20 59.85124 10.62538 1483 ft 95 kts 226°
2026-04-18 13:21 59.84664 10.61569 1489 ft 96 kts 226°
2026-04-18 13:21 59.84195 10.60598 1477 ft 103 kts 224°
2026-04-18 13:21 59.83664 10.59516 1478 ft 117 kts 223°
2026-04-18 13:21 59.83099 10.58408 1478 ft 115 kts 223°
2026-04-18 13:22 59.82514 10.57292 1485 ft 117 kts 221°
2026-04-18 13:22 59.81916 10.56178 1484 ft 118 kts 219°
2026-04-18 13:22 59.81313 10.55073 1486 ft 118 kts 219°
2026-04-18 13:22 59.80705 10.53972 1488 ft 118 kts 220°
2026-04-18 13:23 59.80093 10.52873 1487 ft 119 kts 219°
2026-04-18 13:23 59.79481 10.51782 1487 ft 117 kts 219°
2026-04-18 13:23 59.78878 10.50711 1484 ft 117 kts 219°
2026-04-18 13:23 59.78279 10.49648 1487 ft 115 kts 219°
2026-04-18 13:24 59.77679 10.48589 1486 ft 116 kts 218°
2026-04-18 13:24 59.77078 10.47529 1487 ft 116 kts 219°
2026-04-18 13:24 59.76467 10.46456 1486 ft 118 kts 219°
2026-04-18 13:24 59.75845 10.45369 1485 ft 120 kts 219°
2026-04-18 13:25 59.75222 10.44282 1497 ft 118 kts 217°
2026-04-18 13:25 59.74603 10.43203 1490 ft 120 kts 219°
2026-04-18 13:25 59.73981 10.42115 1489 ft 120 kts 220°
2026-04-18 13:25 59.73361 10.41033 1492 ft 117 kts 217°
2026-04-18 13:26 59.72750 10.39963 1501 ft 114 kts 218°
2026-04-18 13:26 59.72202 10.39010 1456 ft 111 kts 219°
2026-04-18 13:26 59.71633 10.38011 1491 ft 109 kts 216°
2026-04-18 13:26 59.71074 10.37038 1488 ft 107 kts 217°
2026-04-18 13:27 59.70511 10.36058 1487 ft 109 kts 219°
2026-04-18 13:27 59.69942 10.35063 1561 ft 106 kts 217°
2026-04-18 13:27 59.69433 10.34167 1727 ft 96 kts 216°
2026-04-18 13:27 59.68928 10.33279 1783 ft 100 kts 217°
2026-04-18 13:28 59.68387 10.32328 1825 ft 105 kts 216°
2026-04-18 13:28 59.67830 10.31366 1823 ft 107 kts 216°
2026-04-18 13:28 59.67275 10.30402 1841 ft 107 kts 217°
2026-04-18 13:28 59.66712 10.29440 1843 ft 106 kts 217°
2026-04-18 13:29 59.66160 10.28497 1841 ft 106 kts 216°
2026-04-18 13:29 59.65602 10.27549 1845 ft 103 kts 215°
2026-04-18 13:29 59.65055 10.26612 1841 ft 106 kts 217°
2026-04-18 13:29 59.64496 10.25645 1832 ft 108 kts 218°
2026-04-18 13:30 59.63936 10.24676 1840 ft 107 kts 217°
2026-04-18 13:30 59.63370 10.23699 1839 ft 109 kts 218°
2026-04-18 13:30 59.62814 10.22736 1837 ft 108 kts 218°
2026-04-18 13:30 59.62242 10.21742 1845 ft 109 kts 219°
2026-04-18 13:31 59.61673 10.20752 1838 ft 110 kts 218°
2026-04-18 13:31 59.61102 10.19757 1837 ft 110 kts 218°
2026-04-18 13:31 59.60507 10.18716 1829 ft 119 kts 218°
2026-04-18 13:31 59.59886 10.17635 1836 ft 119 kts 218°
2026-04-18 13:32 59.59263 10.16556 1837 ft 119 kts 218°
2026-04-18 13:32 59.58637 10.15473 1842 ft 121 kts 218°
2026-04-18 13:32 59.58014 10.14406 1838 ft 117 kts 217°
2026-04-18 13:32 59.57393 10.13337 1837 ft 120 kts 217°
2026-04-18 13:33 59.56769 10.12265 1838 ft 119 kts 218°
2026-04-18 13:33 59.56147 10.11196 1836 ft 118 kts 217°
2026-04-18 13:33 59.55533 10.10145 1746 ft 116 kts 215°
2026-04-18 13:33 59.54920 10.09105 1603 ft 117 kts 217°
2026-04-18 13:34 59.54323 10.08025 1467 ft 118 kts 226°
2026-04-18 13:34 59.54021 10.06499 1378 ft 123 kts 261°
2026-04-18 13:34 59.53870 10.04870 1425 ft 118 kts 247°
2026-04-18 13:34 59.53514 10.03673 1511 ft 77 kts 212°
2026-04-18 13:35 59.53093 10.03491 1429 ft 59 kts 184°
2026-04-18 13:35 59.52730 10.03170 1415 ft 63 kts 220°
2026-04-18 13:35 59.52351 10.02469 1444 ft 85 kts 236°
2026-04-18 13:35 59.51895 10.01648 1466 ft 92 kts 211°
2026-04-18 13:36 59.51254 10.01379 1441 ft 99 kts 181°
2026-04-18 13:36 59.50639 10.01669 1241 ft 72 kts 175°
2026-04-18 13:36 59.50270 10.01704 1122 ft 45 kts 212°
2026-04-18 13:36 59.50070 10.01370 1059 ft 30 kts 239°
2026-04-18 13:37 59.50016 10.01036 940 ft 24 kts 241°
2026-04-18 13:37 59.50017 10.00700 859 ft 25 kts 194°
2026-04-18 13:37 59.49992 10.00554 808 ft 6 kts 150°
2026-04-18 13:37 59.49963 10.00530 745 ft 4 kts 148°
2026-04-18 13:38 59.49942 10.00517 700 ft 5 kts 143°
2026-04-18 13:38 59.49925 10.00528 684 ft 3 kts 139°
2026-04-18 13:38 59.49912 10.00542 650 ft 4 kts 134°
2026-04-18 13:38 59.49914 10.00535 642 ft 0 kts 127°
2026-04-18 13:39 59.49915 10.00530 643 ft 0 kts 120°
2026-04-18 13:39 59.49914 10.00531 635 ft 0 kts 120°
2026-04-18 13:40 59.49914 10.00532 655 ft 0 kts 120°
2026-04-18 13:40 59.49911 10.00533 660 ft 5 kts 120°
2026-04-18 13:40 59.49798 10.00813 716 ft 43 kts 130°
2026-04-18 13:41 59.49463 10.01275 791 ft 71 kts 169°
2026-04-18 13:41 59.48989 10.00971 855 ft 78 kts 230°
2026-04-18 13:41 59.48867 10.00040 1006 ft 71 kts 309°
2026-04-18 13:41 59.49234 9.99539 1071 ft 66 kts 34°
2026-04-18 13:42 59.49581 10.00001 923 ft 65 kts 88°
2026-04-18 13:42 59.49601 10.00896 661 ft 65 kts 139°
2026-04-18 13:42 59.49359 10.01161 484 ft 37 kts 200°
2026-04-18 13:42 59.49140 10.01015 389 ft 23 kts 184°
2026-04-18 13:43 59.49042 10.00970 324 ft 8 kts 170°
2026-04-18 13:43 59.49024 10.00961 307 ft 1 kts 153°
2026-04-18 13:43 59.49025 10.00959 308 ft 2 kts 146°
2026-04-18 13:43 59.49061 10.00889 397 ft 11 kts 126°
2026-04-18 13:44 59.49068 10.00896 550 ft 32 kts 116°
2026-04-18 13:44 59.49192 10.01632 620 ft 90 kts 37°
2026-04-18 13:44 59.49736 10.01495 816 ft 78 kts 311°
2026-04-18 13:44 59.50014 10.00828 889 ft 44 kts 271°
2026-04-18 13:45 59.50042 10.00468 843 ft 10 kts 183°
2026-04-18 13:45 59.49982 10.00445 764 ft 8 kts 151°
2026-04-18 13:45 59.49952 10.00482 718 ft 4 kts 150°
2026-04-18 13:45 59.49933 10.00512 673 ft 3 kts 150°
2026-04-18 13:46 59.49940 10.00507 659 ft 3 kts 150°
2026-04-18 13:46 59.49924 10.00527 657 ft 1 kts 145°
2026-04-18 13:46 59.49925 10.00526 658 ft 0 kts 145°
2026-04-18 13:47 59.49924 10.00526 656 ft 0 kts 145°
2026-04-18 13:47 59.49925 10.00526 656 ft 0 kts 145°
2026-04-18 13:47 59.49925 10.00527 659 ft 0 kts 145°
2026-04-18 13:48 59.49925 10.00526 660 ft 0 kts 145°
2026-04-18 13:48 59.49924 10.00526 658 ft 2 kts 145°
2026-04-18 13:48 59.49737 10.00794 724 ft 64 kts 142°
2026-04-18 13:49 59.49261 10.01226 847 ft 86 kts 175°
2026-04-18 13:49 59.48694 10.00734 940 ft 97 kts 226°
2026-04-18 13:49 59.48623 9.99446 1044 ft 104 kts 282°
2026-04-18 13:49 59.48861 9.98000 981 ft 118 kts 290°
2026-04-18 13:50 59.49235 9.96478 859 ft 129 kts 297°
2026-04-18 13:50 59.49731 9.94944 737 ft 136 kts 304°
2026-04-18 13:50 59.50206 9.93393 814 ft 128 kts 297°
2026-04-18 13:50 59.50582 9.91881 1000 ft 119 kts 293°
2026-04-18 13:51 59.50892 9.90419 1216 ft 113 kts 289°
2026-04-18 13:51 59.51249 9.89055 1453 ft 113 kts 304°
2026-04-18 13:51 59.51780 9.87861 1625 ft 120 kts 315°
2026-04-18 13:51 59.52435 9.86860 1785 ft 118 kts 327°
2026-04-18 13:52 59.53162 9.86088 1866 ft 121 kts 330°
2026-04-18 13:52 59.53842 9.85074 1900 ft 124 kts 318°
2026-04-18 13:52 59.54491 9.83964 1915 ft 122 kts 317°
2026-04-18 13:52 59.55151 9.82918 1921 ft 122 kts 322°
2026-04-18 13:53 59.55837 9.81915 1927 ft 123 kts 322°
2026-04-18 13:53 59.56507 9.80936 1931 ft 119 kts 322°
2026-04-18 13:53 59.57170 9.79951 1886 ft 117 kts 323°
2026-04-18 13:53 59.57792 9.78978 1903 ft 116 kts 322°
2026-04-18 13:54 59.58424 9.77985 1896 ft 116 kts 322°
2026-04-18 13:54 59.59053 9.76983 1889 ft 115 kts 322°
2026-04-18 13:54 59.59676 9.75994 1880 ft 116 kts 322°
2026-04-18 13:54 59.60312 9.74985 1884 ft 116 kts 322°
2026-04-18 13:55 59.60937 9.73985 1878 ft 117 kts 322°
2026-04-18 13:55 59.61589 9.73003 1883 ft 118 kts 326°
2026-04-18 13:55 59.62258 9.72127 1837 ft 114 kts 328°
2026-04-18 13:55 59.62913 9.71266 1712 ft 106 kts 325°
2026-04-18 13:56 59.63406 9.70251 1570 ft 104 kts 309°
2026-04-18 13:56 59.63857 9.69132 1448 ft 103 kts 309°
2026-04-18 13:56 59.64295 9.68029 1311 ft 100 kts 308°
2026-04-18 13:56 59.64665 9.67071 1184 ft 78 kts 308°
2026-04-18 13:57 59.65008 9.66198 1123 ft 82 kts 309°
2026-04-18 13:57 59.65364 9.65309 1092 ft 87 kts 309°
2026-04-18 13:57 59.65851 9.64655 1017 ft 82 kts 346°
2026-04-18 13:57 59.66391 9.64148 920 ft 69 kts
2026-04-18 13:58 59.66743 9.64229 951 ft 41 kts 57°
2026-04-18 13:58 59.66890 9.64776 887 ft 50 kts 68°
2026-04-18 13:58 59.67021 9.65405 854 ft 47 kts 72°
2026-04-18 13:58 59.67099 9.65531 740 ft 19 kts 110°
2026-04-18 13:59 59.67111 9.65334 761 ft 21 kts 121°
2026-04-18 13:59 59.66976 9.65453 736 ft 23 kts 44°
2026-04-18 13:59 59.67041 9.65509 666 ft 7 kts 253°
2026-04-18 13:59 59.67006 9.65466 636 ft 4 kts 115°
2026-04-18 14:00 59.67005 9.65490 589 ft 1 kts 341°
2026-04-18 14:00 59.67013 9.65487 577 ft 0 kts 335°